| time (UTC) | temp F | wind direction | speed MPH | gust MPH | rain 1hr in | rain 24hr in | rain mn in | humidity % | barometer mb |
| 20260507093006 | 40 | 285 | 0.0 | 2.0 | 0.00 | 0.01 | 0.00 | 30 | 1014.7 |
| 20260507091504 | 41 | 281 | 0.0 | 1.0 | 0.00 | 0.01 | 0.00 | 32 | 1014.8 |
| 20260507090001 | 41 | 282 | 0.0 | 1.0 | 0.00 | 0.01 | 0.00 | 35 | 1014.7 |
| 20260507084601 | 42 | 283 | 0.0 | 3.0 | 0.00 | 0.01 | 0.00 | 37 | 1014.5 |
| 20260507083058 | 42 | 252 | 1.0 | 4.0 | 0.00 | 0.01 | 0.00 | 38 | 1014.5 |
| 20260507081557 | 42 | 271 | 1.0 | 4.0 | 0.00 | 0.01 | 0.00 | 39 | 1014.5 |
| 20260507080056 | 43 | 290 | 2.0 | 5.0 | 0.00 | 0.01 | 0.00 | 39 | 1014.5 |
| 20260507074554 | 43 | 309 | 1.0 | 4.0 | 0.00 | 0.01 | 0.00 | 41 | 1014.5 |
| 20260507073052 | 43 | 257 | 0.0 | 4.0 | 0.00 | 0.01 | 0.00 | 42 | 1014.4 |
| 20260507071555 | 43 | 320 | 0.0 | 2.0 | 0.00 | 0.01 | 0.00 | 44 | 1014.5 |
| 20260507070059 | 44 | 304 | 1.0 | 4.0 | 0.00 | 0.01 | 0.00 | 45 | 1014.4 |
| 20260507064546 | 44 | 313 | 1.0 | 4.0 | 0.00 | 0.02 | 0.00 | 45 | 1014.5 |
| 20260507063043 | 45 | 272 | 1.0 | 4.0 | 0.00 | 0.02 | 0.00 | 46 | 1014.6 |
| 20260507061541 | 45 | 260 | 1.0 | 4.0 | 0.00 | 0.02 | 0.00 | 45 | 1014.6 |
| 20260507060048 | 45 | 275 | 1.0 | 5.0 | 0.00 | 0.02 | 0.00 | 43 | 1014.6 |
| 20260507054537 | 45 | 310 | 0.0 | 2.0 | 0.00 | 0.03 | 0.00 | 40 | 1014.7 |
| 20260507053036 | 46 | 311 | 0.0 | 0.0 | 0.00 | 0.03 | 0.00 | 40 | 1014.5 |
| 20260507051540 | 46 | 317 | 0.0 | 1.0 | 0.00 | 0.03 | 0.00 | 40 | 1014.6 |
| 20260507050039 | 46 | 314 | 0.0 | 4.0 | 0.00 | 0.03 | 0.00 | 41 | 1014.5 |
| 20260507044531 | 47 | 326 | 1.0 | 2.0 | 0.00 | 0.05 | 0.00 | 40 | 1014.5 |
| 20260507043029 | 47 | 340 | 0.0 | 4.0 | 0.00 | 0.05 | 0.00 | 38 | 1014.6 |
| 20260507041530 | 47 | 257 | 0.0 | 0.0 | 0.00 | 0.05 | 0.00 | 35 | 1014.5 |
| 20260507040028 | 47 | 255 | 0.0 | 1.0 | 0.00 | 0.05 | 0.00 | 34 | 1014.5 |
| 20260507034534 | 47 | 243 | 0.0 | 1.0 | 0.00 | 0.07 | 0.05 | 36 | 1014.5 |
| 20260507033019 | 47 | 243 | 0.0 | 1.0 | 0.00 | 0.07 | 0.05 | 38 | 1014.6 |
| 20260507031514 | 48 | 243 | 0.0 | 2.0 | 0.00 | 0.07 | 0.05 | 39 | 1014.6 |
| 20260507030017 | 48 | 244 | 0.0 | 2.0 | 0.00 | 0.07 | 0.05 | 42 | 1014.5 |
| 20260507024505 | 49 | 244 | 0.0 | 2.0 | 0.00 | 0.09 | 0.05 | 46 | 1014.5 |
| 20260507023001 | 49 | 244 | 0.0 | 2.0 | 0.00 | 0.09 | 0.05 | 49 | 1014.5 |
| 20260507021600 | 49 | 257 | 0.0 | 1.0 | 0.00 | 0.09 | 0.05 | 49 | 1014.6 |
| 20260507020054 | 49 | 257 | 0.0 | 2.0 | 0.00 | 0.09 | 0.05 | 45 | 1014.4 |
| 20260507014550 | 50 | 257 | 0.0 | 2.0 | 0.00 | 0.13 | 0.05 | 47 | 1014.4 |
| 20260507013043 | 50 | 257 | 0.0 | 2.0 | 0.00 | 0.13 | 0.05 | 50 | 1014.3 |
| 20260507011544 | 51 | 257 | 0.0 | 1.0 | 0.00 | 0.13 | 0.05 | 55 | 1014.1 |
| 20260507010036 | 51 | 257 | 0.0 | 1.0 | 0.00 | 0.13 | 0.05 | 57 | 1013.7 |
| 20260507004530 | 52 | 257 | 0.0 | 2.0 | 0.00 | 0.17 | 0.05 | 57 | 1013.6 |
| 20260507003026 | 52 | 257 | 0.0 | 2.0 | 0.00 | 0.17 | 0.05 | 56 | 1013.4 |
| 20260507001523 | 53 | 226 | 0.0 | 4.0 | 0.00 | 0.17 | 0.05 | 55 | 1013.5 |
| 20260507000018 | 54 | 281 | 3.0 | 6.0 | 0.00 | 0.17 | 0.05 | 53 | 1013.4 |
| 20260506234516 | 55 | 295 | 3.0 | 7.0 | 0.00 | 0.20 | 0.05 | 52 | 1013.3 |
| 20260506233015 | 55 | 232 | 4.0 | 7.0 | 0.00 | 0.20 | 0.05 | 52 | 1013.3 |
| 20260506231512 | 55 | 223 | 2.0 | 6.0 | 0.00 | 0.20 | 0.05 | 52 | 1013.4 |
| 20260506230010 | 55 | 24 | 5.0 | 7.0 | 0.00 | 0.20 | 0.05 | 55 | 1013.5 |
| 20260506224501 | 55 | 245 | 2.0 | 6.0 | 0.00 | 0.22 | 0.05 | 53 | 1013.6 |
| 20260506223101 | 55 | 238 | 5.0 | 9.0 | 0.00 | 0.22 | 0.05 | 53 | 1013.9 |
| 20260506221553 | 54 | 239 | 4.0 | 8.0 | 0.00 | 0.22 | 0.05 | 53 | 1013.9 |
| 20260506220051 | 54 | 275 | 1.0 | 7.0 | 0.00 | 0.22 | 0.05 | 53 | 1013.8 |
| 20260506214544 | 54 | 314 | 3.0 | 8.0 | 0.00 | 0.24 | 0.05 | 54 | 1013.6 |
| 20260506213040 | 54 | 351 | 2.0 | 8.0 | 0.00 | 0.24 | 0.05 | 54 | 1013.7 |
| 20260506211546 | 54 | 350 | 4.0 | 7.0 | 0.00 | 0.24 | 0.05 | 52 | 1013.5 |
| 20260506210035 | 54 | 18 | 5.0 | 9.0 | 0.00 | 0.24 | 0.05 | 52 | 1013.4 |
| 20260506204529 | 54 | 284 | 4.0 | 8.0 | 0.00 | 0.26 | 0.05 | 54 | 1013.3 |
| 20260506203027 | 54 | 351 | 5.0 | 8.0 | 0.00 | 0.26 | 0.05 | 53 | 1013.4 |
| 20260506201525 | 54 | 15 | 4.0 | 8.0 | 0.00 | 0.26 | 0.05 | 53 | 1013.5 |
| 20260506200017 | 54 | 9 | 6.0 | 11.0 | 0.00 | 0.26 | 0.05 | 52 | 1013.6 |
| 20260506194511 | 54 | 324 | 4.0 | 10.0 | 0.00 | 0.34 | 0.05 | 51 | 1013.7 |
| 20260506193008 | 54 | 314 | 2.0 | 9.0 | 0.00 | 0.34 | 0.05 | 53 | 1013.6 |
| 20260506191502 | 54 | 265 | 2.0 | 7.0 | 0.00 | 0.34 | 0.05 | 53 | 1013.5 |
| 20260506190059 | 54 | 254 | 3.0 | 8.0 | 0.00 | 0.34 | 0.05 | 52 | 1013.4 |
| 20260506184554 | 53 | 309 | 0.0 | 8.0 | 0.00 | 0.34 | 0.05 | 52 | 1013.6 |
| 20260506183049 | 53 | 13 | 2.0 | 8.0 | 0.00 | 0.34 | 0.05 | 53 | 1013.6 |
| 20260506181545 | 53 | 260 | 2.0 | 7.0 | 0.00 | 0.34 | 0.05 | 53 | 1013.7 |
| 20260506180041 | 53 | 311 | 5.0 | 8.0 | 0.00 | 0.34 | 0.05 | 53 | 1013.6 |
| 20260506174538 | 54 | 321 | 4.0 | 6.0 | 0.00 | 0.34 | 0.05 | 53 | 1013.5 |
| 20260506173032 | 54 | 292 | 4.0 | 8.0 | 0.00 | 0.34 | 0.05 | 53 | 1013.7 |
| 20260506171530 | 54 | 351 | 5.0 | 8.0 | 0.00 | 0.34 | 0.05 | 53 | 1013.6 |
| 20260506170023 | 54 | 286 | 3.0 | 9.0 | 0.00 | 0.34 | 0.05 | 53 | 1013.5 |
| 20260506164521 | 53 | 285 | 1.0 | 6.0 | 0.00 | 0.35 | 0.05 | 53 | 1013.4 |
| 20260506163014 | 53 | 330 | 5.0 | 11.0 | 0.00 | 0.35 | 0.05 | 54 | 1013.9 |
| 20260506161510 | 53 | 317 | 7.0 | 10.0 | 0.00 | 0.35 | 0.05 | 53 | 1013.8 |
| 20260506160006 | 53 | 16 | 4.0 | 10.0 | 0.00 | 0.35 | 0.05 | 53 | 1013.6 |
| 20260506154500 | 52 | 5 | 0.0 | 7.0 | 0.00 | 0.35 | 0.05 | 50 | 1013.2 |
| 20260506153056 | 52 | 109 | 1.0 | 9.0 | 0.00 | 0.35 | 0.05 | 51 | 1013.6 |
| 20260506151552 | 52 | 13 | 3.0 | 9.0 | 0.00 | 0.35 | 0.05 | 49 | 1013.5 |
| 20260506150058 | 51 | 15 | 4.0 | 10.0 | 0.00 | 0.35 | 0.05 | 50 | 1013.3 |
| 20260506144600 | 50 | 9 | 4.0 | 11.0 | 0.00 | 0.35 | 0.05 | 48 | 1013.2 |
| 20260506143049 | 50 | 15 | 5.0 | 8.0 | 0.00 | 0.35 | 0.05 | 40 | 1013.1 |
| 20260506141535 | 49 | 346 | 6.0 | 8.0 | 0.00 | 0.35 | 0.05 | 34 | 1012.7 |
| 20260506140046 | 49 | 9 | 3.0 | 8.0 | 0.00 | 0.35 | 0.05 | 18 | 1012.8 |
| 20260506134532 | 45 | 269 | 3.0 | 8.0 | 0.00 | 0.35 | 0.05 | 1 | 1012.8 |
| 20260506133022 | 46 | 313 | 5.0 | 8.0 | 0.00 | 0.35 | 0.05 | 1 | 1012.7 |
| 20260506131519 | 46 | 11 | 3.0 | 9.0 | 0.00 | 0.35 | 0.05 | 1 | 1012.6 |
| 20260506130013 | 46 | 342 | 4.0 | 7.0 | 0.00 | 0.35 | 0.05 | 1 | 1012.5 |
| 20260506124509 | 45 | 22 | 0.0 | 5.0 | 0.00 | 0.35 | 0.05 | 1 | 1012.3 |
| 20260506123004 | 45 | 272 | 1.0 | 4.0 | 0.00 | 0.35 | 0.05 | 1 | 1012.1 |
| 20260506121602 | 45 | 230 | 1.0 | 3.0 | 0.00 | 0.35 | 0.05 | 1 | 1011.9 |
| 20260506114552 | 44 | 242 | 0.0 | 3.0 | 0.00 | 0.35 | 0.05 | 1 | 1011.4 |
| 20260506113051 | 44 | 269 | 2.0 | 3.0 | 0.00 | 0.35 | 0.05 | 1 | 1011.1 |
| 20260506111542 | 43 | 254 | 0.0 | 2.0 | 0.01 | 0.35 | 0.05 | 1 | 1011.0 |
| 20260506110042 | 43 | 290 | 0.0 | 2.0 | 0.01 | 0.35 | 0.05 | 1 | 1010.4 |
| 20260506104533 | 43 | 355 | 0.0 | 1.0 | 0.01 | 0.35 | 0.05 | 1 | 1010.3 |
| 20260506103029 | 43 | 355 | 0.0 | 2.0 | 0.01 | 0.35 | 0.05 | 1 | 1010.1 |
| 20260506101529 | 43 | 355 | 0.0 | 1.0 | 0.00 | 0.34 | 0.04 | 1 | 1010.2 |
| 20260506100021 | 43 | 355 | 0.0 | 4.0 | 0.00 | 0.34 | 0.04 | 1 | 1010.1 |
| 20260506094516 | 43 | 360 | 1.0 | 4.0 | 0.00 | 0.35 | 0.04 | 1 | 1009.6 |